TIME,DELAY(SENSOR),PRES,T(CTD),SAL,OXYGEN,RAWTEMP,T(OPTODE),TCPHASE,TURBIDITY,TURBIDITY_GAIN,FLUOR,BETA,CDOM,CSC,CHECK
1351776797,8893,993.6300048828125000,7.8249001502990720,35.1310997009277340,198.2303924560547000,633.8820190429688000,7.8112068176269530,38.0939102172851560,16,3,50,83,64,15626,39254
1351776939,8892,982.2600097656250000,8.0041999816894530,35.1394996643066400,194.8258056640625000,628.4926147460938000,7.9877238273620605,38.2077903747558600,15,3,50,84,65,15624,31899
1351777076,8894,971.6300048828125000,8.1805000305175780,35.1487007141113300,190.6477966308593800,622.9345703125000000,8.1694374084472660,38.3709297180175800,15,3,50,84,62,15622,40727
1351777213,8892,960.7100219726562000,8.3361997604370120,35.1534004211425800,186.1652984619140600,618.3026733398438000,8.3206157684326170,38.5782394409179700,16,3,50,86,64,15621,32809
1351777362,8892,947.4000244140625000,8.6436996459960940,35.1697006225585940,179.8894958496093800,608.8480834960938000,8.6285037994384770,38.8269195556640600,16,3,50,85,64,15618,50131
1351777477,8892,935.8099975585938000,8.8325996398925780,35.1783981323242200,175.1522064208984400,602.9401855468750000,8.8204307556152340,39.0462799072265600,16,3,50,85,64,15617,53397
1351777587,8894,925.2199707031250000,9.0819997787475590,35.2030982971191400,173.3890991210937500,595.1552734375000000,9.0727901458740230,39.0332908630371100,16,3,50,86,64,15618,19732
1351777720,8892,914.3800048828125000,9.3155002593994140,35.2225990295410160,171.5182952880859400,587.8771972656250000,9.3081760406494140,39.0391807556152340,15,3,50,84,64,15618,9843
1351777878,8893,900.3200073242188000,9.5364999771118160,35.2434005737304700,169.4230041503906200,581.0551147460938000,9.5283470153808600,39.0708503723144500,16,3,50,84,64,15618,57555
1351777993,8893,888.2600097656250000,9.8141002655029300,35.2682991027832000,167.4515991210937500,572.0900878906250000,9.8170032501220700,39.0594711303710940,16,3,50,86,64,15622,62396
1351778103,8893,877.2999877929688000,9.9118995666503900,35.2776985168457000,166.2263946533203000,569.2556152343750000,9.9081115722656250,39.1008987426757800,15,3,50,84,62,15623,6100
1351778236,8893,866.3499755859375000,10.1161003112792970,35.2958984375000000,163.7989959716797000,562.5275878906250000,10.1240701675415040,39.1646995544433600,16,3,50,86,62,15624,29892
1351778394,8894,853.4199829101562000,10.4713001251220700,35.3381996154785160,166.1004943847656200,551.7324218750000000,10.4697399139404300,38.8146781921386700,15,3,50,84,63,15621,49248
1351778509,8893,842.7199707031250000,10.7526998519897460,35.3739013671875000,167.0303039550781200,543.1071166992188000,10.7451801300048830,38.6021118164062500,15,3,50,84,62,15623,57321
1351778648,8893,830.7500000000000000,11.0869998931884770,35.4142990112304700,167.5059967041015600,532.3560180664062000,11.0876302719116210,38.3895912170410160,16,3,50,83,62,15624,19478
1351778787,8894,819.2899780273438000,11.4598999023437500,35.4650001525878900,170.5975952148437500,520.5316772460938000,11.4631700515747070,37.9739303588867200,16,3,50,84,62,15624,31813
1351778914,8892,808.4699707031250000,11.7694997787475590,35.5007019042968750,171.8397064208984400,511.0681152343750000,11.7629299163818360,37.7314109802246100,16,3,50,82,62,15624,41870
1351779041,8893,797.3400268554688000,11.9195995330810550,35.5233001708984400,173.0422973632812500,505.5651855468750000,11.9369201660156250,37.5583992004394500,15,3,50,83,62,15624,62705
1351779168,8893,785.9500122070312000,12.1876001358032230,35.5612983703613300,177.5590057373047000,497.5846862792969000,12.1888399124145500,37.1174011230468750,15,3,50,84,60,15624,49400
1351779283,8892,775.4699707031250000,12.4034004211425780,35.5811004638671900,169.5523986816406200,489.9758911132812500,12.4285898208618160,37.5537910461425800,16,3,50,85,62,15620,15907
1351779410,8893,763.8900146484375000,12.7725000381469730,35.6323013305664060,170.0260925292968800,478.7882080078125000,12.7803802490234380,37.3424911499023440,15,3,50,85,60,15620,59718
1351779525,8892,753.0700073242188000,13.0163002014160160,35.6726989746093750,174.1354980468750000,471.0080871582031000,13.0245103836059570,36.9300804138183600,16,3,50,84,60,15621,28222
1351779640,8893,742.4299926757812000,13.1985998153686520,35.7024002075195300,177.3641052246093800,465.2148132324219000,13.2060403823852540,36.6173591613769500,16,3,50,83,60,15622,33738
1351779767,8892,731.1799926757812000,13.4048995971679690,35.7341003417968750,179.6961059570312500,458.5148010253906000,13.4157104492187500,36.3551483154296900,15,3,50,84,61,15622,13723
1351779894,8892,720.5599975585938000,13.5831003189086910,35.7621002197265600,182.3755950927734400,452.9885864257812500,13.5884399414062500,36.0915184020996100,15,3,50,84,61,15622,41892
1351780033,8893,709.2500000000000000,13.8144998550415040,35.7981986999511700,184.2234954833984400,445.6408081054687500,13.8178100585937500,35.8575706481933600,16,3,50,83,60,15624,31115
1351780193,8893,695.4099731445312000,14.0123996734619140,35.8302001953125000,190.7431030273437500,438.3801879882812500,14.0441503524780270,35.3307113647460940,15,3,50,84,59,15620,48837
1351780308,8892,684.0499877929688000,14.2906999588012700,35.8782005310058600,202.2252960205078000,430.1319885253906000,14.3009195327758790,34.5123710632324200,15,3,50,82,58,15618,8829
1351780423,8893,672.7199707031250000,14.4447002410888670,35.9016990661621100,203.3327026367187500,424.9989013671875000,14.4605197906494140,34.3708915710449200,16,3,50,85,59,15619,38643
1351780538,8892,661.5100097656250000,14.6617002487182620,35.9388008117675800,203.5453948974609400,418.0846862792969000,14.6752796173095700,34.2560997009277340,16,3,50,82,58,15618,14454
1351780653,8893,650.4099731445312000,14.8192996978759770,35.9645996093750000,204.1318969726562500,413.1065063476562500,14.8297500610351560,34.1482810974121100,16,3,50,84,58,15618,42571
1351780768,8892,639.4799804687500000,15.0852003097534180,36.0049018859863300,200.6997070312500000,404.5857849121094000,15.0938596725463870,34.2216186523437500,16,3,50,84,58,15619,28416
1351780895,8893,627.2000122070312000,15.2767000198364260,36.0399017333984400,201.3334045410156200,398.3854064941406000,15.2858295440673830,34.0937805175781250,15,3,50,84,58,15618,39011
1351781008,8894,616.1199951171875000,15.5326004028320310,36.0834999084472660,203.4712066650390600,390.2247924804687500,15.5382204055786130,33.8503913879394500,16,3,50,83,58,15617,39201
1351781123,8894,605.0300292968750000,15.7833995819091800,36.1269989013671900,205.0691986083984400,381.5492858886719000,15.8062095642089840,33.6334686279296900,16,3,50,83,58,15616,5395
1351781238,8892,594.1099853515625000,16.0421009063720700,36.1759986877441400,208.1988983154297000,373.5628967285156000,16.0526409149169920,33.3425102233886700,16,3,50,83,56,15618,8000
1351781353,8893,583.2899780273438000,16.2933998107910160,36.2246017456054700,210.6065979003906200,365.3031005859375000,16.3072299957275400,33.0920181274414060,15,3,50,82,56,15618,2151
1351781468,8894,572.5999755859375000,16.4799995422363280,36.2635002136230500,214.5599975585937500,359.2072143554687500,16.4949607849121100,32.7911491394043000,15,3,50,84,56,15617,44408
1351781595,8893,560.6900024414062000,16.6833992004394530,36.3011016845703100,217.1806945800781200,352.8579101562500000,16.6903591156005860,32.5629081726074200,15,3,48,84,56,15617,50841
1351781710,8891,549.9500122070312000,16.8136005401611330,36.3255996704101560,219.8448028564453000,348.4208068847656000,16.8268299102783200,32.3614997863769500,16,3,50,83,56,15615,33189
1351781823,8893,539.4500122070312000,16.8936004638671880,36.3400001525878900,222.6685028076172000,345.7257995605469000,16.9096794128417970,32.1787910461425800,16,3,48,82,56,15608,23712
1351781950,8893,527.6500244140625000,17.0088005065917970,36.3587989807128900,227.4539031982422000,342.0497131347656000,17.0226593017578120,31.8871402740478500,15,3,48,84,54,15614,29818
1351782077,8894,515.8499755859375000,17.1425991058349600,36.3904991149902340,228.7039031982422000,337.7247009277344000,17.1555309295654300,31.7656993865966800,16,3,49,82,54,15615,34543
1351782192,8893,504.8299865722656000,17.2418003082275400,36.4075012207031250,226.5480957031250000,334.3547973632812500,17.2590198516845700,31.8263301849365230,15,3,48,84,54,15615,60402
1351782307,8893,493.7699890136719000,17.2805004119873050,36.4147987365722660,228.8289947509765600,333.2225036621094000,17.2937908172607420,31.6977691650390620,15,3,49,83,54,15616,20389
1351782422,8892,482.7000122070312500,17.4333992004394530,36.4468994140625000,228.8679046630859400,328.3117065429687500,17.4445209503173830,31.6292591094970700,16,3,49,84,54,15615,47600
1351782537,8893,471.6300048828125000,17.5186004638671880,36.4630012512207000,230.3294067382812500,325.5468139648437500,17.5293693542480470,31.5198001861572270,16,3,48,82,54,15614,60427
1351782652,8894,460.7500000000000000,17.5837001800537100,36.4757995605468750,231.3164978027343800,323.4559020996094000,17.5935096740722660,31.4436492919921880,16,3,49,82,54,15613,3751
1351782765,8893,450.4599914550781000,17.6527004241943360,36.4874992370605500,232.3439025878906200,321.1980895996094000,17.6627597808837900,31.3632907867431640,16,3,50,84,54,15614,44904
1351782892,8894,439.4899902343750000,17.7304000854492200,36.5000000000000000,234.5148010253906200,318.6260070800781000,17.7416400909423830,31.2246704101562500,15,3,48,85,54,15611,51377
1351783031,8894,428.0100097656250000,17.7787990570068360,36.5060997009277340,234.7850036621093800,317.1654052734375000,17.7864208221435550,31.1922492980957030,16,3,48,84,54,15612,52506
1351783158,8894,417.9299926757812500,17.8218994140625000,36.5108985900878900,235.1710052490234400,315.5833129882812500,17.8349208831787100,31.1525306701660160,16,3,48,86,54,15613,58375
1351783303,8894,405.3599853515625000,17.9302997589111330,36.5331993103027340,234.9485931396484400,311.9952087402344000,17.9449005126953120,31.1151905059814450,15,3,47,80,54,15612,59097
1351783394,8893,396.5000000000000000,17.9622993469238280,36.5399017333984400,234.9322052001953000,311.1400146484375000,17.9711093902587900,31.1045093536376950,15,3,48,84,54,15612,51203
1351783459,8893,390.2799987792969000,17.9829006195068360,36.5385017395019500,234.6688995361328000,310.3465881347656000,17.9954204559326170,31.1062202453613280,16,3,48,82,53,15610,17601
1351783526,8893,383.8200073242187500,18.0258007049560550,36.5461006164550800,233.8730926513672000,308.6055908203125000,18.0487709045410160,31.1208591461181640,16,3,50,84,52,15610,26101
1351783591,8894,377.5100097656250000,18.0783996582031250,36.5564002990722660,234.1074066162109400,307.3287963867187500,18.0878906250000000,31.0926494598388670,16,3,48,82,53,15613,53156
1351783658,8894,370.9299926757812500,18.1264991760253900,36.5624008178710940,233.7218933105468800,305.7221069335937500,18.1371097564697270,31.0895309448242200,15,3,48,84,54,15610,60712
1351783723,8894,364.5599975585937500,18.1574993133544920,36.5681991577148440,233.7843933105468800,304.4823913574219000,18.1750793457031250,31.0701904296875000,16,3,50,84,54,15610,2910
1351783790,8892,357.9899902343750000,18.2108001708984380,36.5731010437011700,233.3484954833984400,303.0223999023437500,18.2198009490966800,31.0715293884277340,16,3,49,84,54,15610,50572
1351783855,8893,351.5100097656250000,18.2308006286621100,36.5741996765136700,232.4499969482422000,302.3031005859375000,18.2418308258056640,31.1050395965576170,16,3,50,85,54,15608,65216
1351783922,8892,344.8099975585937500,18.2691993713378900,36.5783004760742200,232.2716979980468800,301.0885009765625000,18.2790298461914060,31.0971698760986330,16,3,50,84,55,15608,26752
1351783987,8893,338.3900146484375000,18.2903995513916000,36.5806999206543000,231.9931945800781200,300.4070129394531000,18.2999000549316400,31.1015300750732420,16,3,50,84,54,15608,4203
1351784054,8892,331.8399963378906000,18.3104000091552730,36.5820999145507800,231.3708953857422000,299.5650024414062500,18.3256797790527340,31.1204395294189450,16,3,50,84,53,15610,48294
1351784119,8892,325.5199890136719000,18.3199005126953120,36.5773010253906250,230.9132995605468800,299.4078063964844000,18.3304901123046880,31.1401596069335940,16,3,50,84,54,15610,21457
1351784186,8892,319.0199890136719000,18.2635002136230470,36.5479011535644500,231.5157012939453000,301.0253906250000000,18.2809600830078120,31.1327400207519530,15,3,50,83,54,15612,27536
1351784251,8893,312.8200073242187500,18.2768001556396500,36.5354995727539060,233.3618011474609400,300.7500000000000000,18.2893905639648440,31.0407009124755860,16,3,50,84,54,15612,58537
1351784318,8892,306.5400085449219000,18.4297008514404300,36.5705986022949200,232.1927032470703000,294.7496032714844000,18.4731006622314450,31.0169792175292970,16,3,50,84,54,15610,33185
1351784383,8893,300.4100036621094000,18.4606990814209000,36.5702018737793000,231.0186004638672000,294.7525024414062500,18.4730205535888670,31.0732002258300780,16,3,50,81,54,15610,35862
1351784450,8893,294.0599975585937500,18.5762996673584000,36.5873985290527340,230.3018035888672000,291.1195068359375000,18.5842094421386720,31.0595703125000000,16,3,50,84,54,15610,30373
1351784515,8892,287.8999938964844000,18.6235008239746100,36.5941009521484400,229.4022064208984400,289.4609069824219000,18.6349697113037100,31.0812797546386720,16,3,48,82,54,15612,47432
1351784582,8894,281.6700134277344000,18.7017993927001950,36.5948982238769500,228.7700958251953000,286.9165954589844000,18.7128295898437500,31.0781803131103500,16,3,48,80,54,15612,36855
1351784647,8894,275.8500061035156000,18.7553997039794920,36.5952987670898440,229.0821990966797000,285.1390075683594000,18.7672195434570300,31.0393791198730470,16,3,50,84,54,15613,32685
1351784714,8892,270.1199951171875000,18.7978992462158200,36.5936012268066400,229.5502014160156200,283.8385925292969000,18.8069992065429700,30.9998607635498050,15,3,50,83,52,15614,3430
1351784779,8893,264.5599975585937500,18.8120002746582030,36.5779991149902340,231.1983032226562500,283.3687133789062500,18.8213691711425780,30.9139595031738280,16,3,50,83,52,15612,12954
1351784846,8893,258.8099975585937500,18.7353992462158200,36.5267982482910160,234.6524963378906200,285.7944946289062500,18.7471599578857420,30.7813796997070300,16,3,50,83,52,15610,23092
1351784923,8893,252.2100067138672000,18.8257007598876950,36.5317001342773440,239.8208007812500000,282.3460998535156000,18.8526592254638670,30.4955291748046880,16,3,50,84,54,15607,41797
1351784990,8892,246.4600067138672000,18.9689998626709000,36.5578002929687500,238.5032958984375000,278.3941040039062500,18.9735393524169920,30.5045394897460940,15,3,50,82,52,15609,7906
1351785067,8891,239.9199981689453000,19.0564994812011720,36.5639991760253900,239.2416992187500000,275.3132019042969000,19.0677604675292970,30.4304103851318360,16,3,50,82,53,15610,46517
1351785134,8893,234.2500000000000000,19.1240005493164060,36.5676002502441400,241.8300018310547000,273.1358032226562500,19.1343402862548830,30.2839393615722660,16,3,50,84,52,15612,34318
1351785199,8892,228.6999969482422000,19.1636009216308600,36.5685005187988300,244.0395965576172000,271.9064941406250000,19.1719303131103500,30.1682605743408200,15,3,50,82,52,15612,41871
1351785278,8893,221.8200073242187500,19.2306995391845700,36.5735015869140600,244.1605072021484400,269.7236938476562500,19.2386703491210940,30.1346607208251950,16,3,50,84,52,15611,63648
1351785343,8893,216.0800018310547000,19.2553005218505860,36.5754013061523440,244.0475006103515600,268.8649902343750000,19.2649192810058600,30.1285305023193360,16,3,49,82,52,15608,112
1351785410,8892,209.9900054931640600,19.2945995330810550,36.5763015747070300,243.9127044677734400,267.6936950683594000,19.3007297515869140,30.1196308135986330,16,3,50,84,52,15605,44467
1351785475,8892,204.0299987792968800,19.3003997802734380,36.5620994567871100,244.1622009277343800,267.3132019042969000,19.3123607635498050,30.1033401489257800,15,3,52,88,51,15600,64658
1351785542,8892,197.7299957275390600,19.3824005126953120,36.5747985839843750,244.4792022705078000,264.7721862792969000,19.3900394439697270,30.0562591552734380,15,3,52,86,51,15602,50299
